Regional Weather Roundup
Issued by NWS Jackson, KY

Home | Current Version | Previous Version | Text Only | Print | Product List | Glossary Off
Versions: 1 2 3 4 5 6 7 8 9 10 11 12 13 14 15 16 17 18 19 20 21 22 23 24 25 26 27

000
ASUS43 KJKL 201010
RWRJKL

EAST KENTUCKY HOURLY WEATHER ROUNDUP
NATIONAL WEATHER SERVICE JACKSON KY
500 AM EST SAT JAN 20 2018

NOTE: "FAIR" INDICATES FEW OR NO CLOUDS BELOW 12,000 FEET WITH
NO SIGNIFICANT WEATHER AND/OR OBSTRUCTIONS TO VISIBILITY.

* THESE REPORTS ARE NOT UNDER NWS QUALITY CONTROL AND MAY NOT
  REPORT WEATHER SUCH AS PRECIPITATION AND FOG.

KYZ079-080-083-085-087-088-110-112-115-119-120-201100
...EASTERN KENTUCKY...

CITY           SKY/WX    TMP DP  RH WIND       PRES   REMARKS
JACKSON        CLOUDY    41  29  62 SW6       30.14R
LONDON         CLOUDY    42  29  59 S7        30.16S
SOMERSET*      CLOUDY    37  27  65 S7        30.18S WCI  32
MONTICELLO*    CLOUDY    45  31  58 SW12G21   30.18S
WILLIAMSBURG*  CLOUDY    45  32  61 SW5       30.18R
MIDDLESBORO*   CLOUDY    31  26  83 CALM      30.23R
HARLAN APT*    CLOUDY    30  23  74 CALM      30.20R
PIKE CO APT*   CLOUDY    41  31  67 S6        30.14F
BIG SANDY APT* CLOUDY    42  31  63 SW8       30.14S
MOREHEAD APT*  CLOUDY    43  28  56 SW16G26   30.12R
ASHLAND*         N/A     33  23  66 CALM      30.11S
$$

KYZ035-036-041-042-044-050-067-078-099-201100
...CENTRAL KENTUCKY...

CITY           SKY/WX    TMP DP  RH WIND       PRES   REMARKS
MT STERLING*   CLOUDY    41  28  60 SW14      30.12S
FLEMING/MASON*   N/A     37  28  69 SW10G16   30.10R WCI  30
DANVILLE*      CLOUDY    37  27  65 SW6       30.14R WCI  33
LEXINGTON      CLOUDY    41  28  60 S15       30.10S
FRANKFORT        N/A     40  25  55 SW13      30.08S WCI  32
LOUISVILLE       N/A     41  24  51 S8        30.09S
LEBANON*       CLOUDY    39  25  56 S12       30.12S WCI  32
GLASGOW*       CLOUDY    41  27  57 SW6       30.14F
BOWLING GREEN  CLOUDY    40  27  59 SW5       30.15R
$$

KYZ091>093-OHZ055-061-077-WVZ005-015-034-035-042-201100
...SOUTHERN OHIO/WEST VIRGINIA...

CITY           SKY/WX    TMP DP  RH WIND       PRES   REMARKS
COVINGTON        N/A     34  25  69 SW9       30.04R WCI  27
COLUMBUS         N/A     30  22  72 S5        30.02R WCI  25
DAYTON         MOCLDY    31  23  72 S12       29.99F WCI  22
WILMINGTON       N/A     33  24  69 SW17      30.02R WCI  22
HUNTINGTON     CLOUDY    39  23  52 S8        30.10F WCI  33
CHARLESTON     CLOUDY    40  27  59 SW9       30.12R WCI  34
BECKLEY        CLOUDY    32  11  41 SW6       30.13R WCI  26
BLUEFIELD        N/A     31  13  47 W14G21    30.14R WCI  21
LOGAN CO APT*  CLOUDY    37  23  56 CALM      30.14S
$$

VAZ002-007-008-TNZ017-027-036-066-071-201100
...SOUTHWEST VIRGINIA/EAST TENNESSEE...

CITY           SKY/WX    TMP DP  RH WIND       PRES   REMARKS
WISE*          CLOUDY    34  23  64 SW13      30.17R WCI  25
JONESVILLE*    CLOUDY    27  21  80 CALM      30.26R
ABINGDON*      CLOUDY    28  14  57 CALM      30.21S
BRISTOL        MOCLDY    23  19  85 CALM      30.24S
MORRISTOWN*    CLOUDY    32  21  64 CALM      30.22F
SEVIERVILLE*   CLOUDY    30  25  80 CALM      30.24S
KNOXVILLE      CLOUDY    34  24  67 E3        30.22F
LAFOLLETTE*    CLOUDY    30  25  80 CALM      30.26R
OAK RIDGE      CLOUDY    33  25  72 CALM      30.25S
CROSSVILLE     CLOUDY    37  23  56 CALM      30.19S
NASHVILLE      CLOUDY    44  27  51 S6        30.18S
$$

...KEY TO REMARKS...
VSB - VISIBILITY IN MILES
WCI - WIND CHILL INDEX
HX  - HEAT INDEX

$$




USA.gov is the U.S. government's official web portal to all federal, state and local government web resources and services.